Time,TemperatureF,DewpointF,PressureIn,WindDirection,WindDirectionDegrees,WindSpeedMPH,WindSpeedGustMPH,Humidity,HourlyPrecipIn,Conditions,Clouds,dailyrainin,SoftwareType,DateUTC
2013-02-04 00:01:00,23.0,17.0,30.06,South,176,0.0,1.0,76,0.00,,,0.01,,2013-02-04 06:01:00,
2013-02-04 00:11:00,23.0,17.0,30.06,South,176,0.0,1.0,76,0.00,,,0.01,,2013-02-04 06:11:00,
2013-02-04 00:21:00,22.0,16.0,30.05,South,176,0.0,1.0,76,0.00,,,0.01,,2013-02-04 06:21:00,
2013-02-04 00:32:00,22.0,16.0,30.04,South,176,0.0,1.0,77,0.00,,,0.01,,2013-02-04 06:32:00,
2013-02-04 00:42:00,22.0,16.0,30.04,South,176,0.0,1.0,77,0.00,,,0.01,,2013-02-04 06:42:00,
2013-02-04 00:52:00,22.0,16.0,30.04,South,176,0.0,1.0,76,0.00,,,0.01,,2013-02-04 06:52:00,
2013-02-04 01:02:00,22.0,16.0,30.04,South,176,0.0,0.0,77,0.00,,,0.01,,2013-02-04 07:02:00,
2013-02-04 01:11:00,22.0,16.0,30.04,South,176,0.0,1.0,77,0.00,,,0.01,,2013-02-04 07:11:00,
2013-02-04 01:21:00,22.0,16.0,30.04,South,176,0.0,1.0,77,0.00,,,0.01,,2013-02-04 07:21:00,
2013-02-04 01:30:00,22.0,16.0,30.01,South,176,2.0,5.0,77,0.00,,,0.01,,2013-02-04 07:30:00,
2013-02-04 01:31:00,22.0,16.0,30.03,South,176,0.0,3.0,77,0.00,,,0.01,,2013-02-04 07:31:00,
2013-02-04 01:42:00,22.0,16.0,30.03,South,176,0.0,3.0,77,0.00,,,0.01,,2013-02-04 07:42:00,
2013-02-04 01:52:00,22.0,16.0,30.01,South,176,2.0,5.0,77,0.00,,,0.01,,2013-02-04 07:52:00,
2013-02-04 02:01:00,22.0,16.0,30.01,South,176,2.0,5.0,77,0.00,,,0.01,,2013-02-04 08:01:00,
2013-02-04 02:11:00,22.0,16.0,30.01,South,176,2.0,5.0,77,0.00,,,0.01,,2013-02-04 08:11:00,
2013-02-04 02:21:00,22.0,16.0,30.01,South,176,2.0,5.0,77,0.00,,,0.01,,2013-02-04 08:21:00,
2013-02-04 02:40:00,23.0,16.0,29.98,SE,142,5.0,6.0,75,0.00,,,0.01,,2013-02-04 08:40:00,
2013-02-04 03:02:00,23.0,16.0,29.98,SE,142,5.0,6.0,75,0.00,,,0.01,,2013-02-04 09:02:00,
2013-02-04 03:11:00,23.0,16.0,29.98,SE,142,5.0,6.0,75,0.00,,,0.01,,2013-02-04 09:11:00,
2013-02-04 03:21:00,23.0,16.0,29.98,SE,142,5.0,6.0,75,0.00,,,0.01,,2013-02-04 09:21:00,
2013-02-04 03:31:00,23.0,16.0,29.98,SE,142,5.0,6.0,75,0.00,,,0.01,,2013-02-04 09:31:00,
2013-02-04 03:52:00,24.0,17.0,29.95,SSE,159,1.0,10.0,73,0.00,,,0.01,,2013-02-04 09:52:00,
2013-02-04 04:01:00,24.0,17.0,29.94,SSE,152,6.0,8.0,73,0.00,,,0.01,,2013-02-04 10:01:00,
2013-02-04 04:11:00,24.0,17.0,29.94,SSE,152,6.0,8.0,73,0.00,,,0.01,,2013-02-04 10:11:00,
2013-02-04 04:21:00,24.0,17.0,29.93,SE,132,4.0,10.0,74,0.00,,,0.01,,2013-02-04 10:21:00,
2013-02-04 04:32:00,24.0,17.0,29.93,SE,136,4.0,5.0,74,0.00,,,0.01,,2013-02-04 10:32:00,
2013-02-04 04:41:00,24.0,17.0,29.93,SE,136,4.0,5.0,74,0.00,,,0.01,,2013-02-04 10:41:00,
2013-02-04 04:52:00,24.0,17.0,29.91,SE,138,7.0,14.0,73,0.00,,,0.01,,2013-02-04 10:52:00,
2013-02-04 05:01:00,24.0,17.0,29.91,SE,138,7.0,14.0,73,0.00,,,0.01,,2013-02-04 11:01:00,
2013-02-04 05:11:00,24.0,17.0,29.91,SE,138,7.0,14.0,73,0.00,,,0.01,,2013-02-04 11:11:00,
2013-02-04 05:22:00,26.0,17.0,29.90,SSE,161,12.0,18.0,69,0.00,,,0.01,,2013-02-04 11:22:00,
2013-02-04 05:32:00,26.0,17.0,29.89,SE,134,12.0,18.0,69,0.00,,,0.01,,2013-02-04 11:32:00,
2013-02-04 05:42:00,26.0,17.0,29.89,SE,134,12.0,18.0,69,0.00,,,0.01,,2013-02-04 11:42:00,
2013-02-04 05:52:00,26.0,17.0,29.88,SSE,163,7.0,21.0,69,0.00,,,0.01,,2013-02-04 11:52:00,
2013-02-04 06:02:00,26.0,17.0,29.88,SSE,167,9.0,21.0,69,0.00,,,0.01,,2013-02-04 12:02:00,
2013-02-04 06:12:00,26.0,17.0,29.88,SSE,167,9.0,21.0,69,0.00,,,0.01,,2013-02-04 12:12:00,
2013-02-04 06:22:00,26.0,18.0,29.87,South,177,13.0,21.0,70,0.00,,,0.01,,2013-02-04 12:22:00,
2013-02-04 06:32:00,26.0,18.0,29.87,SSE,152,12.0,16.0,71,0.00,,,0.01,,2013-02-04 12:32:00,
2013-02-04 06:42:00,26.0,18.0,29.87,SSE,152,12.0,16.0,71,0.00,,,0.01,,2013-02-04 12:42:00,
2013-02-04 06:53:00,26.0,18.0,29.87,SSE,152,12.0,16.0,71,0.00,,,0.01,,2013-02-04 12:53:00,
2013-02-04 07:02:00,26.0,18.0,29.87,SSE,152,12.0,16.0,71,0.00,,,0.01,,2013-02-04 13:02:00,
2013-02-04 07:12:00,27.0,19.0,29.85,SSE,152,9.0,20.0,70,0.00,,,0.01,,2013-02-04 13:12:00,
2013-02-04 07:22:00,27.0,19.0,29.85,SSE,152,9.0,20.0,70,0.00,,,0.01,,2013-02-04 13:22:00,
2013-02-04 07:33:00,27.0,19.0,29.85,SSE,152,9.0,20.0,70,0.00,,,0.01,,2013-02-04 13:33:00,
2013-02-04 07:42:00,27.0,19.0,29.85,SSE,152,9.0,20.0,70,0.00,,,0.01,,2013-02-04 13:42:00,
2013-02-04 07:52:00,27.0,19.0,29.83,SSE,159,10.0,21.0,70,0.00,,,0.01,,2013-02-04 13:52:00,
2013-02-04 08:03:00,27.0,19.0,29.83,South,179,9.0,18.0,70,0.00,,,0.01,,2013-02-04 14:03:00,
2013-02-04 08:12:00,27.0,19.0,29.83,South,179,9.0,18.0,70,0.00,,,0.01,,2013-02-04 14:12:00,
2013-02-04 08:22:00,28.0,20.0,29.83,SSE,157,11.0,16.0,71,0.00,,,0.01,,2013-02-04 14:22:00,
2013-02-04 08:32:00,28.0,20.0,29.83,SE,138,9.0,15.0,71,0.00,,,0.01,,2013-02-04 14:32:00,
2013-02-04 08:42:00,28.0,20.0,29.83,SE,138,9.0,15.0,71,0.00,,,0.01,,2013-02-04 14:42:00,
2013-02-04 08:52:00,28.0,20.0,29.82,South,170,6.0,16.0,71,0.00,,,0.01,,2013-02-04 14:52:00,
2013-02-04 09:03:00,28.0,20.0,29.82,South,173,7.0,10.0,70,0.00,,,0.01,,2013-02-04 15:03:00,
2013-02-04 09:12:00,28.0,20.0,29.82,South,173,7.0,10.0,70,0.00,,,0.01,,2013-02-04 15:12:00,
2013-02-04 09:23:00,29.0,20.0,29.81,SE,138,7.0,16.0,70,0.00,,,0.01,,2013-02-04 15:23:00,
2013-02-04 09:33:00,29.0,20.0,29.81,SSE,157,7.0,15.0,70,0.00,,,0.01,,2013-02-04 15:33:00,
2013-02-04 09:43:00,29.0,20.0,29.81,SSE,157,7.0,15.0,70,0.00,,,0.01,,2013-02-04 15:43:00,
2013-02-04 09:53:00,30.0,21.0,29.81,WSW,240,6.0,10.0,69,0.00,,,0.01,,2013-02-04 15:53:00,
2013-02-04 10:02:00,31.0,22.0,29.80,SSE,167,6.0,9.0,70,0.00,,,0.01,,2013-02-04 16:02:00,
2013-02-04 10:11:00,31.0,22.0,29.80,SSE,167,6.0,9.0,70,0.00,,,0.01,,2013-02-04 16:11:00,
2013-02-04 10:22:00,32.0,23.0,29.81,South,170,7.0,12.0,69,0.00,,,0.01,,2013-02-04 16:22:00,
2013-02-04 10:32:00,32.0,23.0,29.81,SW,233,3.0,10.0,70,0.00,,,0.01,,2013-02-04 16:32:00,
2013-02-04 10:42:00,32.0,23.0,29.81,SW,233,3.0,10.0,70,0.00,,,0.01,,2013-02-04 16:42:00,
2013-02-04 10:52:00,32.0,23.0,29.81,South,179,2.0,18.0,70,0.00,,,0.01,,2013-02-04 16:52:00,
2013-02-04 11:02:00,33.0,24.0,29.81,SSW,206,8.0,12.0,69,0.00,,,0.01,,2013-02-04 17:02:00,
2013-02-04 11:11:00,33.0,24.0,29.81,SSW,206,8.0,12.0,69,0.00,,,0.01,,2013-02-04 17:11:00,
2013-02-04 11:21:00,34.0,25.0,29.80,SSE,147,7.0,20.0,68,0.00,,,0.01,,2013-02-04 17:21:00,
2013-02-04 11:32:00,35.0,26.0,29.80,SSE,150,6.0,20.0,68,0.00,,,0.01,,2013-02-04 17:32:00,
2013-02-04 11:42:00,35.0,26.0,29.80,SSE,150,6.0,20.0,68,0.00,,,0.01,,2013-02-04 17:42:00,
2013-02-04 11:52:00,36.0,26.0,29.79,South,183,2.0,10.0,67,0.00,,,0.01,,2013-02-04 17:52:00,
2013-02-04 12:03:00,36.0,26.0,29.79,South,183,2.0,10.0,67,0.00,,,0.01,,2013-02-04 18:03:00,
2013-02-04 12:11:00,36.0,26.0,29.79,South,183,2.0,10.0,67,0.00,,,0.01,,2013-02-04 18:11:00,
2013-02-04 12:22:00,36.0,26.0,29.78,South,170,3.0,8.0,68,0.00,,,0.01,,2013-02-04 18:22:00,
2013-02-04 12:32:00,36.0,27.0,29.77,SE,137,6.0,9.0,69,0.01,,,0.02,,2013-02-04 18:32:00,
2013-02-04 12:42:00,36.0,27.0,29.77,SE,137,6.0,9.0,69,0.01,,,0.02,,2013-02-04 18:42:00,
2013-02-04 12:52:00,36.0,28.0,29.77,WSW,240,2.0,8.0,71,0.02,,,0.03,,2013-02-04 18:52:00,
2013-02-04 13:02:00,36.0,28.0,29.77,South,173,3.0,6.0,71,0.02,,,0.03,,2013-02-04 19:02:00,
2013-02-04 13:11:00,36.0,28.0,29.77,South,173,3.0,6.0,71,0.02,,,0.03,,2013-02-04 19:11:00,
2013-02-04 13:22:00,37.0,28.0,29.76,South,175,1.0,9.0,69,0.03,,,0.04,,2013-02-04 19:22:00,
2013-02-04 13:31:00,38.0,28.0,29.76,SW,235,5.0,8.0,67,0.02,,,0.04,,2013-02-04 19:31:00,
2013-02-04 13:42:00,38.0,28.0,29.76,SW,235,5.0,8.0,67,0.02,,,0.04,,2013-02-04 19:42:00,
2013-02-04 13:52:00,40.0,29.0,29.76,West,265,3.0,15.0,65,0.02,,,0.05,,2013-02-04 19:52:00,
2013-02-04 14:02:00,40.0,29.0,29.76,West,265,3.0,15.0,65,0.02,,,0.05,,2013-02-04 20:02:00,
2013-02-04 14:12:00,40.0,29.0,29.76,West,265,3.0,15.0,65,0.02,,,0.05,,2013-02-04 20:12:00,
2013-02-04 14:21:00,40.0,29.0,29.76,West,260,9.0,10.0,65,0.02,,,0.06,,2013-02-04 20:21:00,
2013-02-04 14:32:00,40.0,29.0,29.76,WSW,247,9.0,9.0,65,0.02,,,0.06,,2013-02-04 20:32:00,
2013-02-04 14:42:00,40.0,29.0,29.76,WSW,247,9.0,9.0,65,0.02,,,0.06,,2013-02-04 20:42:00,
2013-02-04 14:52:00,39.0,29.0,29.76,West,280,8.0,16.0,66,0.01,,,0.06,,2013-02-04 20:52:00,
2013-02-04 15:02:00,40.0,29.0,29.77,WNW,302,8.0,15.0,65,0.01,,,0.06,,2013-02-04 21:02:00,
2013-02-04 15:10:00,40.0,29.0,29.78,NW,304,10.0,10.0,64,0.00,,,0.06,,2013-02-04 21:10:00,
2013-02-04 15:11:00,40.0,29.0,29.77,WNW,302,8.0,15.0,65,0.01,,,0.06,,2013-02-04 21:11:00,
2013-02-04 15:22:00,39.0,28.0,29.78,WNW,301,5.0,15.0,65,0.00,,,0.06,,2013-02-04 21:22:00,
2013-02-04 15:31:00,40.0,29.0,29.78,NW,304,10.0,10.0,64,0.00,,,0.06,,2013-02-04 21:31:00,
2013-02-04 15:42:00,40.0,29.0,29.78,NW,304,10.0,10.0,64,0.00,,,0.06,,2013-02-04 21:42:00,
2013-02-04 15:52:00,40.0,29.0,29.78,NW,304,10.0,10.0,64,0.00,,,0.06,,2013-02-04 21:52:00,
2013-02-04 16:02:00,40.0,29.0,29.78,NW,304,10.0,10.0,64,0.00,,,0.06,,2013-02-04 22:02:00,
2013-02-04 16:33:00,36.0,28.0,29.78,NW,321,14.0,18.0,71,0.00,,,0.06,,2013-02-04 22:33:00,
2013-02-04 16:42:00,36.0,28.0,29.78,NW,321,14.0,18.0,71,0.00,,,0.06,,2013-02-04 22:42:00,
2013-02-04 16:52:00,35.0,27.0,29.78,NNW,348,9.0,18.0,72,0.00,,,0.06,,2013-02-04 22:52:00,
2013-02-04 17:01:00,35.0,27.0,29.78,NW,312,10.0,18.0,73,0.00,,,0.06,,2013-02-04 23:01:00,
2013-02-04 17:11:00,35.0,27.0,29.78,NW,312,10.0,18.0,73,0.00,,,0.06,,2013-02-04 23:11:00,
2013-02-04 17:21:00,34.0,27.0,29.80,NNW,337,6.0,15.0,75,0.00,,,0.06,,2013-02-04 23:21:00,
2013-02-04 17:32:00,33.0,26.0,29.80,NNW,337,5.0,14.0,75,0.00,,,0.06,,2013-02-04 23:32:00,
2013-02-04 17:42:00,33.0,26.0,29.80,NNW,337,5.0,14.0,75,0.00,,,0.06,,2013-02-04 23:42:00,
2013-02-04 17:52:00,32.0,25.0,29.82,NNW,348,9.0,10.0,76,0.00,,,0.06,,2013-02-04 23:52:00,
2013-02-04 18:01:00,32.0,25.0,29.82,NNW,348,9.0,10.0,76,0.00,,,0.06,,2013-02-05 00:01:00,
2013-02-04 18:11:00,32.0,25.0,29.82,NNW,348,9.0,10.0,76,0.00,,,0.06,,2013-02-05 00:11:00,
2013-02-04 18:21:00,32.0,25.0,29.84,NNW,334,7.0,16.0,76,0.00,,,0.06,,2013-02-05 00:21:00,
2013-02-04 18:31:00,31.0,24.0,29.85,NW,319,14.0,21.0,76,0.00,,,0.06,,2013-02-05 00:31:00,
2013-02-04 18:42:00,31.0,24.0,29.85,NW,319,14.0,21.0,76,0.00,,,0.06,,2013-02-05 00:42:00,
2013-02-04 18:52:00,31.0,25.0,29.86,NW,317,10.0,21.0,77,0.00,,,0.06,,2013-02-05 00:52:00,
2013-02-04 19:01:00,31.0,25.0,29.87,WNW,303,8.0,18.0,78,0.00,,,0.06,,2013-02-05 01:01:00,
2013-02-04 19:11:00,31.0,25.0,29.87,WNW,303,8.0,18.0,78,0.00,,,0.06,,2013-02-05 01:11:00,
2013-02-04 19:22:00,31.0,25.0,29.87,WNW,303,8.0,18.0,78,0.00,,,0.06,,2013-02-05 01:22:00,
2013-02-04 19:32:00,30.0,24.0,29.88,North,355,6.0,16.0,78,0.00,,,0.06,,2013-02-05 01:32:00,
2013-02-04 19:42:00,30.0,24.0,29.88,North,355,6.0,16.0,78,0.00,,,0.06,,2013-02-05 01:42:00,
2013-02-04 19:52:00,30.0,24.0,29.89,NW,322,10.0,16.0,78,0.00,,,0.05,,2013-02-05 01:52:00,
2013-02-04 20:01:00,30.0,24.0,29.89,NW,322,10.0,16.0,78,0.00,,,0.05,,2013-02-05 02:01:00,
2013-02-04 20:10:00,30.0,23.0,29.89,NW,321,6.0,18.0,76,0.00,,,0.05,,2013-02-05 02:10:00,
2013-02-04 20:11:00,30.0,24.0,29.89,NW,322,10.0,16.0,78,0.00,,,0.05,,2013-02-05 02:11:00,
2013-02-04 20:22:00,30.0,23.0,29.89,NNW,334,6.0,16.0,76,0.00,,,0.05,,2013-02-05 02:22:00,
2013-02-04 20:32:00,30.0,23.0,29.89,NW,321,6.0,18.0,76,0.00,,,0.05,,2013-02-05 02:32:00,
2013-02-04 20:42:00,30.0,23.0,29.89,NW,321,6.0,18.0,76,0.00,,,0.05,,2013-02-05 02:42:00,
2013-02-04 20:52:00,30.0,23.0,29.89,NW,321,6.0,18.0,76,0.00,,,0.05,,2013-02-05 02:52:00,
2013-02-04 21:02:00,30.0,23.0,29.89,NW,321,6.0,18.0,76,0.00,,,0.05,,2013-02-05 03:02:00,
2013-02-04 21:22:00,29.0,23.0,29.89,North,355,2.0,16.0,77,0.00,,,0.05,,2013-02-05 03:22:00,
2013-02-04 21:32:00,29.0,23.0,29.89,North,355,2.0,16.0,77,0.00,,,0.05,,2013-02-05 03:32:00,
2013-02-04 21:42:00,29.0,23.0,29.89,North,355,2.0,16.0,77,0.00,,,0.05,,2013-02-05 03:42:00,
2013-02-04 21:52:00,29.0,23.0,29.91,North,11,6.0,15.0,77,0.00,,,0.05,,2013-02-05 03:52:00,
2013-02-04 22:01:00,29.0,23.0,29.90,NNE,23,6.0,9.0,77,0.00,,,0.05,,2013-02-05 04:01:00,
2013-02-04 22:10:00,29.0,23.0,29.89,NNE,19,5.0,8.0,78,0.00,,,0.05,,2013-02-05 04:10:00,
2013-02-04 22:11:00,29.0,23.0,29.90,NNE,23,6.0,9.0,77,0.00,,,0.05,,2013-02-05 04:11:00,
2013-02-04 22:21:00,29.0,23.0,29.90,NNE,23,6.0,9.0,77,0.00,,,0.05,,2013-02-05 04:21:00,
2013-02-04 22:32:00,29.0,23.0,29.89,NNE,19,5.0,8.0,78,0.00,,,0.05,,2013-02-05 04:32:00,
2013-02-04 22:42:00,29.0,23.0,29.89,NNE,19,5.0,8.0,78,0.00,,,0.05,,2013-02-05 04:42:00,
2013-02-04 22:52:00,29.0,23.0,29.89,NNE,19,5.0,8.0,78,0.00,,,0.05,,2013-02-05 04:52:00,
2013-02-04 23:02:00,29.0,23.0,29.89,NNE,19,5.0,8.0,78,0.00,,,0.05,,2013-02-05 05:02:00,
2013-02-04 23:22:00,29.0,23.0,29.91,NNW,339,1.0,8.0,79,0.00,,,0.05,,2013-02-05 05:22:00,
2013-02-04 23:32:00,29.0,23.0,29.91,NNW,339,1.0,8.0,79,0.00,,,0.05,,2013-02-05 05:32:00,
2013-02-04 23:42:00,29.0,23.0,29.91,NNW,339,1.0,8.0,79,0.00,,,0.05,,2013-02-05 05:42:00,
2013-02-04 23:52:00,29.0,23.0,29.91,NNW,339,1.0,8.0,79,0.00,,,0.05,,2013-02-05 05:52:00,